Location: Passau
(48.5830°N, 13.4830°E)
Time: 01:58:08
(UTC+02:00)

X-37B - Visible Passes

Search period start: 18 June 2021 00:00
Search period end: 28 June 2021 00:00
Orbit: 386 x 389 km, 45.0° (Epoch: 10 June)

Date Brightness Start Highest point End Pass type
(mag) Time Alt. Az. Time Alt. Az. Time Alt. Az.
18 Jun 1.0 02:48:20 34° SSW 02:49:06 41° S 02:52:08 10° ESE visible
19 Jun 2.3 01:52:21 22° ESE 01:52:21 22° ESE 01:53:47 10° E visible
19 Jun 1.0 03:24:37 13° WSW 03:27:11 41° S 03:30:12 10° ESE visible
20 Jun 0.9 02:28:47 43° S 02:28:54 43° S 02:31:57 10° ESE visible
20 Jun 1.6 04:02:28 10° WSW 04:05:12 27° SSW 04:07:56 10° SE visible
21 Jun 3.0 01:33:13 13° ESE 01:33:13 13° ESE 01:33:39 10° ESE visible
21 Jun 1.2 03:05:32 22° WSW 03:06:58 34° SSW 03:09:54 10° SE visible
22 Jun 2.5 02:10:41 18° SE 02:10:41 18° SE 02:11:44 10° ESE visible
22 Jun 2.0 03:43:04 13° WSW 03:44:55 19° SSW 03:47:16 10° SSE visible
22 Jun 3.2 23:31:21 10° SW 23:31:22 10° SW 23:31:22 10° SW visible
23 Jun 1.9 22:33:29 10° SSW 22:35:57 21° SSE 22:37:46 14° ESE visible
24 Jun 2.6 00:09:09 10° WSW 00:10:08 18° WSW 00:10:08 18° WSW visible
24 Jun 1.1 23:10:57 10° WSW 23:13:55 36° SSE 23:15:10 25° ESE visible
25 Jun 3.2 00:47:14 10° WSW 00:47:29 12° WSW 00:47:29 12° WSW visible
25 Jun 1.5 22:12:52 10° SW 22:15:40 28° SSE 22:18:28 10° ESE visible
25 Jun 0.9 23:48:56 10° WSW 23:51:53 43° S 23:51:53 43° S visible
26 Jun 1.0 22:50:40 10° WSW 22:53:42 41° S 22:56:01 15° ESE visible
27 Jun 2.5 00:27:07 10° W 00:28:17 19° WSW 00:28:17 19° WSW visible
27 Jun 1.2 21:52:28 10° WSW 21:55:26 36° S 21:58:23 10° E visible
27 Jun 1.0 23:28:46 10° WSW 23:31:47 40° S 23:32:18 37° SSE visible
